BTK7056 WIHH-WAHI

Flight info

Callsign BTK7056
Flight time 1h 6m
Altitude 31000
Route PW W17 CLP
Aircraft A320/M-SDE3FGHIRWY/LB1

Departure

Time 2026-04-30 10:21
Airport Halim Perdanakusuma International Airport (WIHH)

Arrival

Time 2026-04-30 11:27
Airport Yogyakarta International Airport (WAHI)
Time Latitude Longitude Altitude Speed Heading
2026-04-30 09:52 -6.26613 106.88603 95 ft 0 kts 336°
2026-04-30 10:10 -6.26617 106.88605 95 ft 3 kts 334°
2026-04-30 10:10 -6.26636 106.88617 94 ft 3 kts 316°
2026-04-30 10:10 -6.26649 106.88634 95 ft 3 kts 285°
2026-04-30 10:11 -6.26651 106.88655 95 ft 3 kts 252°
2026-04-30 10:11 -6.26647 106.88664 95 ft 0 kts 245°
2026-04-30 10:15 -6.26648 106.88662 95 ft 3 kts 245°
2026-04-30 10:15 -6.26672 106.88612 94 ft 10 kts 245°
2026-04-30 10:15 -6.26698 106.88555 94 ft 8 kts 245°
2026-04-30 10:16 -6.26720 106.88508 94 ft 7 kts 243°
2026-04-30 10:16 -6.26760 106.88481 95 ft 9 kts 185°
2026-04-30 10:16 -6.26827 106.88509 94 ft 0 kts 155°
2026-04-30 10:17 -6.26828 106.88509 94 ft 1 kts 155°
2026-04-30 10:17 -6.26927 106.88519 93 ft 13 kts 222°
2026-04-30 10:17 -6.26980 106.88415 92 ft 20 kts 244°
2026-04-30 10:18 -6.27045 106.88277 93 ft 24 kts 245°
2026-04-30 10:18 -6.27120 106.88115 94 ft 26 kts 245°
2026-04-30 10:18 -6.27149 106.87989 95 ft 14 kts 278°
2026-04-30 10:19 -6.27204 106.87901 96 ft 7 kts 136°
2026-04-30 10:19 -6.27202 106.87940 99 ft 6 kts 68°
2026-04-30 10:19 -6.27196 106.87954 97 ft 0 kts 66°
2026-04-30 10:20 -6.27149 106.88057 95 ft 51 kts 65°
2026-04-30 10:20 -6.26878 106.88638 95 ft 122 kts 65°
2026-04-30 10:21 -6.26520 106.89409 111 ft 164 kts 65°
2026-04-30 10:21 -6.26056 106.90459 640 ft 171 kts 65°
2026-04-30 10:21 -6.25516 106.91744 1371 ft 176 kts 74°
2026-04-30 10:21 -6.25689 106.93006 2040 ft 183 kts 115°
2026-04-30 10:22 -6.26382 106.94170 2369 ft 206 kts 121°
2026-04-30 10:22 -6.27224 106.95447 2735 ft 231 kts 121°
2026-04-30 10:22 -6.28154 106.96863 3178 ft 255 kts 121°
2026-04-30 10:22 -6.29137 106.98399 3781 ft 267 kts 121°
2026-04-30 10:23 -6.30122 106.99982 3958 ft 267 kts 120°
2026-04-30 10:23 -6.31088 107.01572 4001 ft 267 kts 120°
2026-04-30 10:23 -6.32044 107.03169 4000 ft 267 kts 120°
2026-04-30 10:23 -6.32998 107.04773 3989 ft 267 kts 120°
2026-04-30 10:24 -6.34134 107.06239 3990 ft 268 kts 138°
2026-04-30 10:24 -6.35719 107.07225 3993 ft 270 kts 152°
2026-04-30 10:24 -6.37406 107.08079 3992 ft 271 kts 152°
2026-04-30 10:24 -6.39093 107.08931 3992 ft 271 kts 152°
2026-04-30 10:25 -6.40700 107.09942 4007 ft 270 kts 137°
2026-04-30 10:25 -6.41855 107.11390 4163 ft 275 kts 116°
2026-04-30 10:25 -6.42624 107.13145 5125 ft 273 kts 112°
2026-04-30 10:25 -6.43398 107.14919 6102 ft 275 kts 113°
2026-04-30 10:26 -6.44183 107.16684 6957 ft 278 kts 113°
2026-04-30 10:26 -6.44980 107.18468 7802 ft 281 kts 114°
2026-04-30 10:26 -6.45783 107.20269 8636 ft 285 kts 114°
2026-04-30 10:26 -6.46600 107.22106 9455 ft 289 kts 114°
2026-04-30 10:27 -6.47415 107.23951 10206 ft 294 kts 113°
2026-04-30 10:27 -6.48273 107.25905 10497 ft 317 kts 113°
2026-04-30 10:27 -6.49197 107.28015 10765 ft 337 kts 113°
2026-04-30 10:27 -6.50162 107.30208 11302 ft 346 kts 114°
2026-04-30 10:28 -6.51143 107.32434 11965 ft 351 kts 114°
2026-04-30 10:28 -6.52138 107.34693 12627 ft 355 kts 114°
2026-04-30 10:28 -6.53139 107.36969 13305 ft 358 kts 114°
2026-04-30 10:28 -6.54148 107.39264 13940 ft 361 kts 114°
2026-04-30 10:29 -6.55293 107.41523 14528 ft 364 kts 123°
2026-04-30 10:29 -6.56925 107.43474 15103 ft 368 kts 137°
2026-04-30 10:29 -6.59003 107.44979 15702 ft 372 kts 151°
2026-04-30 10:29 -6.61428 107.45940 16239 ft 377 kts 165°
2026-04-30 10:30 -6.64012 107.46460 16803 ft 380 kts 168°
2026-04-30 10:30 -6.66616 107.46963 17372 ft 384 kts 168°
2026-04-30 10:30 -6.69253 107.47478 17941 ft 387 kts 168°
2026-04-30 10:30 -6.71911 107.48002 18433 ft 391 kts 168°
2026-04-30 10:31 -6.73712 107.48358 18748 ft 393 kts 167°
2026-04-30 10:31 -6.76404 107.48891 19197 ft 396 kts 167°
2026-04-30 10:31 -6.79117 107.49429 19651 ft 398 kts 167°
2026-04-30 10:31 -6.81838 107.49971 20116 ft 401 kts 167°
2026-04-30 10:32 -6.84516 107.50786 20542 ft 403 kts 155°
2026-04-30 10:32 -6.86968 107.52159 20972 ft 404 kts 143°
2026-04-30 10:32 -6.89071 107.54030 21416 ft 405 kts 131°
2026-04-30 10:32 -6.90747 107.56314 21828 ft 407 kts 119°
2026-04-30 10:33 -6.92050 107.58854 22237 ft 410 kts 116°
2026-04-30 10:33 -6.93334 107.61422 22674 ft 412 kts 116°
2026-04-30 10:33 -6.94635 107.64015 23110 ft 415 kts 116°
2026-04-30 10:33 -6.95940 107.66610 23521 ft 418 kts 116°
2026-04-30 10:34 -6.97253 107.69218 23850 ft 420 kts 116°
2026-04-30 10:34 -6.98580 107.71856 24187 ft 423 kts 116°
2026-04-30 10:34 -6.99905 107.74491 24524 ft 425 kts 116°
2026-04-30 10:34 -7.01248 107.77166 24858 ft 427 kts 116°
2026-04-30 10:35 -7.02598 107.79848 25182 ft 430 kts 116°
2026-04-30 10:35 -7.03951 107.82538 25503 ft 432 kts 116°
2026-04-30 10:35 -7.05309 107.85242 25824 ft 434 kts 116°
2026-04-30 10:35 -7.06668 107.87954 26136 ft 436 kts 116°
2026-04-30 10:36 -7.08038 107.90693 26438 ft 439 kts 116°
2026-04-30 10:36 -7.09415 107.93441 26748 ft 441 kts 116°
2026-04-30 10:36 -7.10801 107.96203 27058 ft 443 kts 116°
2026-04-30 10:36 -7.12196 107.98982 27374 ft 445 kts 116°
2026-04-30 10:37 -7.13594 108.01772 27659 ft 447 kts 116°
2026-04-30 10:37 -7.14995 108.04566 27941 ft 449 kts 116°
2026-04-30 10:37 -7.16406 108.07381 28230 ft 451 kts 116°
2026-04-30 10:37 -7.17825 108.10215 28516 ft 454 kts 116°
2026-04-30 10:38 -7.19252 108.13061 28795 ft 456 kts 116°
2026-04-30 10:38 -7.20681 108.15907 29067 ft 458 kts 116°
2026-04-30 10:38 -7.22122 108.18775 29319 ft 460 kts 116°
2026-04-30 10:38 -7.23585 108.21685 29589 ft 461 kts 116°
2026-04-30 10:39 -7.25032 108.24569 29854 ft 463 kts 116°
2026-04-30 10:39 -7.26487 108.27477 30093 ft 465 kts 116°
2026-04-30 10:39 -7.27943 108.30393 30306 ft 467 kts 116°
2026-04-30 10:39 -7.29400 108.33310 30528 ft 468 kts 116°
2026-04-30 10:40 -7.30869 108.36252 30775 ft 469 kts 116°
2026-04-30 10:40 -7.32336 108.39186 30913 ft 468 kts 116°
2026-04-30 10:40 -7.35267 108.45044 30925 ft 468 kts 116°
2026-04-30 10:41 -7.38189 108.50894 30928 ft 468 kts 116°
2026-04-30 10:41 -7.41115 108.56751 30926 ft 468 kts 116°
2026-04-30 10:42 -7.44041 108.62599 30919 ft 468 kts 116°
2026-04-30 10:42 -7.46962 108.68453 30918 ft 468 kts 116°
2026-04-30 10:43 -7.49886 108.74322 30907 ft 468 kts 116°
2026-04-30 10:43 -7.52815 108.80185 30910 ft 468 kts 116°
2026-04-30 10:44 -7.55737 108.86041 30908 ft 468 kts 116°
2026-04-30 10:44 -7.58661 108.91914 30920 ft 468 kts 116°
2026-04-30 10:45 -7.61580 108.97768 30902 ft 468 kts 116°
2026-04-30 10:45 -7.64202 109.03693 30258 ft 457 kts 106°
2026-04-30 10:46 -7.64862 109.06816 29976 ft 454 kts 97°
2026-04-30 10:46 -7.65233 109.09967 29869 ft 453 kts 97°
2026-04-30 10:46 -7.66024 109.16290 29900 ft 455 kts 97°
2026-04-30 10:47 -7.66852 109.22652 29549 ft 454 kts 97°
2026-04-30 10:47 -7.67269 109.25789 28838 ft 451 kts 100°
2026-04-30 10:47 -7.68189 109.28821 27624 ft 453 kts 115°
2026-04-30 10:48 -7.69897 109.31484 26466 ft 455 kts 129°
2026-04-30 10:48 -7.71972 109.33875 25345 ft 449 kts 130°
2026-04-30 10:48 -7.74015 109.36214 24289 ft 441 kts 130°
2026-04-30 10:48 -7.76024 109.38516 23244 ft 433 kts 130°
2026-04-30 10:49 -7.77995 109.40781 22084 ft 426 kts 130°
2026-04-30 10:49 -7.79925 109.43005 20986 ft 419 kts 130°
2026-04-30 10:49 -7.81807 109.45176 20241 ft 405 kts 130°
2026-04-30 10:49 -7.83621 109.47268 19759 ft 385 kts 130°
2026-04-30 10:50 -7.85350 109.49266 19288 ft 369 kts 130°
2026-04-30 10:50 -7.87003 109.51179 18813 ft 356 kts 130°
2026-04-30 10:50 -7.88622 109.53052 18357 ft 354 kts 130°
2026-04-30 10:50 -7.90244 109.54924 17827 ft 355 kts 130°
2026-04-30 10:51 -7.91858 109.56786 17346 ft 353 kts 130°
2026-04-30 10:51 -7.93471 109.58647 16865 ft 351 kts 130°
2026-04-30 10:51 -7.95077 109.60500 16384 ft 350 kts 130°
2026-04-30 10:51 -7.96694 109.62367 15909 ft 349 kts 130°
2026-04-30 10:52 -7.98287 109.64210 15436 ft 348 kts 130°
2026-04-30 10:52 -7.99877 109.66049 14965 ft 347 kts 130°
2026-04-30 10:52 -8.01460 109.67883 14495 ft 346 kts 131°
2026-04-30 10:52 -8.03061 109.69735 14021 ft 346 kts 131°
2026-04-30 10:53 -8.04622 109.71541 13525 ft 345 kts 131°
2026-04-30 10:53 -8.06221 109.73390 13013 ft 344 kts 131°
2026-04-30 10:53 -8.07787 109.75201 12585 ft 340 kts 131°
2026-04-30 10:53 -8.09330 109.76982 12142 ft 336 kts 131°
2026-04-30 10:54 -8.10855 109.78745 11668 ft 335 kts 131°
2026-04-30 10:54 -8.12390 109.80521 11172 ft 333 kts 130°
2026-04-30 10:54 -8.13914 109.82284 10684 ft 332 kts 130°
2026-04-30 10:54 -8.15414 109.84018 10448 ft 322 kts 130°
2026-04-30 10:55 -8.16809 109.85718 10329 ft 307 kts 123°
2026-04-30 10:55 -8.17791 109.87569 10116 ft 295 kts 111°
2026-04-30 10:55 -8.18326 109.89535 10023 ft 289 kts 102°
2026-04-30 10:55 -8.18748 109.91522 9957 ft 289 kts 102°
2026-04-30 10:56 -8.19173 109.93471 9854 ft 279 kts 102°
2026-04-30 10:56 -8.19576 109.95344 9688 ft 270 kts 99°
2026-04-30 10:56 -8.19506 109.97174 9202 ft 265 kts 73°
2026-04-30 10:56 -8.18580 109.98764 8609 ft 265 kts 44°
2026-04-30 10:57 -8.17008 109.99707 8113 ft 262 kts 16°
2026-04-30 10:57 -8.15241 110.00093 7998 ft 265 kts 13°
2026-04-30 10:57 -8.13395 110.00385 7463 ft 271 kts
2026-04-30 10:57 -8.11535 110.00145 7014 ft 264 kts 344°
2026-04-30 10:58 -8.09874 109.99405 6518 ft 260 kts 329°
2026-04-30 10:58 -8.08334 109.98475 5977 ft 258 kts 329°
2026-04-30 10:58 -8.06796 109.97552 5568 ft 257 kts 329°
2026-04-30 10:58 -8.05267 109.96635 5195 ft 252 kts 329°
2026-04-30 10:59 -8.03785 109.95746 4860 ft 243 kts 329°
2026-04-30 10:59 -8.02355 109.94887 4521 ft 235 kts 330°
2026-04-30 10:59 -8.00979 109.94064 4199 ft 228 kts 330°
2026-04-30 10:59 -7.99621 109.93250 3901 ft 222 kts 330°
2026-04-30 11:00 -7.98311 109.92465 3595 ft 216 kts 330°
2026-04-30 11:00 -7.97025 109.91693 3310 ft 211 kts 330°
2026-04-30 11:00 -7.95785 109.90949 3020 ft 208 kts 330°
2026-04-30 11:00 -7.94552 109.90210 2734 ft 205 kts 330°
2026-04-30 11:01 -7.93265 109.89558 2480 ft 203 kts 344°
2026-04-30 11:01 -7.91932 109.89235 2326 ft 192 kts 349°
2026-04-30 11:01 -7.90655 109.88938 2178 ft 183 kts 351°
2026-04-30 11:01 -7.89834 109.88871 2094 ft 175 kts
2026-04-30 11:02 -7.88705 109.89146 2022 ft 162 kts 29°
2026-04-30 11:02 -7.87806 109.89756 2003 ft 152 kts 46°
2026-04-30 11:02 -7.86946 109.90846 2009 ft 147 kts 57°
2026-04-30 11:02 -7.86373 109.91689 1998 ft 146 kts 66°
2026-04-30 11:03 -7.86142 109.92319 2004 ft 143 kts 80°
2026-04-30 11:03 -7.86082 109.93253 1994 ft 144 kts 102°
2026-04-30 11:03 -7.86400 109.94240 1978 ft 146 kts 108°
2026-04-30 11:04 -7.87041 109.96126 1670 ft 140 kts 110°
2026-04-30 11:04 -7.87354 109.97002 1516 ft 134 kts 110°
2026-04-30 11:04 -7.87667 109.97868 1327 ft 135 kts 110°
2026-04-30 11:04 -7.87990 109.98758 1166 ft 134 kts 111°
2026-04-30 11:05 -7.88321 109.99668 1003 ft 134 kts 111°
2026-04-30 11:05 -7.88641 110.00546 846 ft 132 kts 110°
2026-04-30 11:05 -7.88959 110.01417 681 ft 131 kts 112°
2026-04-30 11:05 -7.89286 110.02311 500 ft 137 kts 111°
2026-04-30 11:06 -7.89582 110.03121 310 ft 135 kts 111°
2026-04-30 11:06 -7.89853 110.03865 212 ft 134 kts 112°
2026-04-30 11:06 -7.90148 110.04660 62 ft 135 kts 111°
2026-04-30 11:06 -7.90475 110.05556 92 ft 126 kts 111°
2026-04-30 11:07 -7.90905 110.06654 934 ft 140 kts 113°
2026-04-30 11:07 -7.91231 110.07418 1413 ft 149 kts 113°
2026-04-30 11:07 -7.91712 110.08608 2195 ft 168 kts 112°
2026-04-30 11:07 -7.92238 110.09883 2142 ft 225 kts 112°
2026-04-30 11:08 -7.92889 110.11449 2077 ft 244 kts 112°
2026-04-30 11:08 -7.93541 110.12981 2081 ft 225 kts 115°
2026-04-30 11:08 -7.94354 110.14248 2109 ft 211 kts 129°
2026-04-30 11:08 -7.95425 110.15300 2430 ft 216 kts 144°
2026-04-30 11:09 -7.96744 110.16119 3334 ft 218 kts 150°
2026-04-30 11:09 -7.98141 110.16698 4103 ft 223 kts 171°
2026-04-30 11:09 -7.99703 110.16552 4904 ft 227 kts 201°
2026-04-30 11:09 -8.01184 110.15971 5655 ft 233 kts 195°
2026-04-30 11:10 -8.02768 110.15591 5915 ft 233 kts 191°
2026-04-30 11:10 -8.04338 110.15273 5994 ft 233 kts 191°
2026-04-30 11:10 -8.05943 110.14956 6002 ft 232 kts 190°
2026-04-30 11:10 -8.07529 110.14645 6007 ft 232 kts 191°
2026-04-30 11:11 -8.09118 110.14334 6004 ft 232 kts 190°
2026-04-30 11:11 -8.10697 110.14023 6006 ft 232 kts 191°
2026-04-30 11:11 -8.12281 110.13711 6017 ft 232 kts 190°
2026-04-30 11:11 -8.13864 110.13396 6016 ft 232 kts 191°
2026-04-30 11:12 -8.15449 110.13082 6018 ft 232 kts 190°
2026-04-30 11:12 -8.17035 110.12768 6014 ft 232 kts 190°
2026-04-30 11:12 -8.18621 110.12456 6021 ft 232 kts 191°
2026-04-30 11:12 -8.20203 110.12140 6023 ft 232 kts 190°
2026-04-30 11:13 -8.21781 110.11803 6019 ft 233 kts 190°
2026-04-30 11:13 -8.23368 110.11455 6021 ft 233 kts 190°
2026-04-30 11:13 -8.24961 110.11103 6020 ft 233 kts 191°
2026-04-30 11:13 -8.26480 110.10559 6017 ft 235 kts 212°
2026-04-30 11:14 -8.27623 110.09385 6026 ft 236 kts 240°
2026-04-30 11:14 -8.28080 110.07805 6022 ft 237 kts 270°
2026-04-30 11:14 -8.27734 110.06196 6024 ft 236 kts 299°
2026-04-30 11:14 -8.26706 110.04927 6032 ft 235 kts 319°
2026-04-30 11:15 -8.25499 110.03806 6024 ft 236 kts 319°
2026-04-30 11:15 -8.24293 110.02677 6023 ft 236 kts 318°
2026-04-30 11:15 -8.23095 110.01549 6022 ft 236 kts 318°
2026-04-30 11:15 -8.21888 110.00423 6022 ft 236 kts 322°
2026-04-30 11:16 -8.20480 109.99616 6018 ft 233 kts 344°
2026-04-30 11:16 -8.18887 109.99379 6021 ft 231 kts
2026-04-30 11:16 -8.17286 109.99660 6023 ft 231 kts 13°
2026-04-30 11:16 -8.15742 110.00006 6019 ft 232 kts 13°
2026-04-30 11:17 -8.14172 110.00357 6017 ft 232 kts 13°
2026-04-30 11:17 -8.12562 110.00479 6017 ft 232 kts 354°
2026-04-30 11:17 -8.11008 110.00070 5834 ft 231 kts 335°
2026-04-30 11:17 -8.09628 109.99265 5516 ft 231 kts 329°
2026-04-30 11:18 -8.08248 109.98429 5210 ft 230 kts 329°
2026-04-30 11:18 -8.05507 109.96784 4649 ft 228 kts 329°
2026-04-30 11:18 -8.04155 109.95973 4346 ft 227 kts 329°
2026-04-30 11:19 -8.02787 109.95152 4044 ft 226 kts 330°
2026-04-30 11:19 -8.01430 109.94340 3742 ft 225 kts 330°
2026-04-30 11:19 -8.00087 109.93535 3473 ft 224 kts 330°
2026-04-30 11:19 -7.98759 109.92739 3207 ft 223 kts 330°
2026-04-30 11:20 -7.97437 109.91947 3077 ft 216 kts 330°
2026-04-30 11:20 -7.96157 109.91180 2948 ft 210 kts 330°
2026-04-30 11:20 -7.94910 109.90434 2776 ft 209 kts 330°
2026-04-30 11:20 -7.93640 109.89715 2520 ft 210 kts 339°
2026-04-30 11:21 -7.92250 109.89322 2356 ft 205 kts 349°
2026-04-30 11:21 -7.90918 109.89009 2235 ft 194 kts 348°
2026-04-30 11:21 -7.89601 109.88904 2097 ft 182 kts
2026-04-30 11:21 -7.88417 109.89218 2015 ft 169 kts 27°
2026-04-30 11:22 -7.87481 109.89801 2000 ft 154 kts 43°
2026-04-30 11:22 -7.86769 109.90583 2003 ft 148 kts 58°
2026-04-30 11:22 -7.86299 109.91498 2007 ft 146 kts 73°
2026-04-30 11:22 -7.86086 109.92438 2006 ft 143 kts 87°
2026-04-30 11:23 -7.86123 109.93479 2002 ft 141 kts 100°
2026-04-30 11:23 -7.86403 109.94420 1951 ft 140 kts 110°
2026-04-30 11:23 -7.86906 109.95796 1720 ft 136 kts 110°
2026-04-30 11:24 -7.87103 109.96336 1621 ft 133 kts 110°
2026-04-30 11:24 -7.87425 109.97215 1451 ft 132 kts 110°
2026-04-30 11:24 -7.87924 109.98582 1206 ft 132 kts 111°
2026-04-30 11:25 -7.88681 110.00655 811 ft 137 kts 110°
2026-04-30 11:25 -7.88900 110.01256 695 ft 139 kts 109°
2026-04-30 11:25 -7.89538 110.02993 327 ft 142 kts 109°
2026-04-30 11:26 -7.89855 110.03849 215 ft 141 kts 108°
2026-04-30 11:26 -7.90020 110.04315 96 ft 142 kts 108°
2026-04-30 11:26 -7.90172 110.04739 44 ft 136 kts 109°
2026-04-30 11:27 -7.90367 110.05279 38 ft 115 kts 109°
2026-04-30 11:27 -7.90478 110.05593 45 ft 100 kts 110°
2026-04-30 11:27 -7.90786 110.06417 41 ft 52 kts 110°
2026-04-30 11:27 -7.90911 110.06760 43 ft 37 kts 110°
2026-04-30 11:28 -7.90943 110.07042 43 ft 13 kts 60°
2026-04-30 11:28 -7.90927 110.07073 42 ft 3 kts 62°
2026-04-30 11:28 -7.90874 110.07103 42 ft 11 kts 356°
2026-04-30 11:29 -7.90820 110.07020 40 ft 18 kts 289°
2026-04-30 11:29 -7.90769 110.06878 39 ft 22 kts 289°
2026-04-30 11:29 -7.90639 110.06522 37 ft 22 kts 290°
2026-04-30 11:30 -7.90448 110.06485 35 ft 14 kts 300°
2026-04-30 11:30 -7.90412 110.06388 35 ft 8 kts 290°
2026-04-30 11:30 -7.90382 110.06306 34 ft 6 kts 291°
2026-04-30 11:31 -7.90368 110.06268 36 ft 0 kts 291°
2026-04-30 11:31 -7.90365 110.06261 36 ft 5 kts 291°
2026-04-30 11:31 -7.90341 110.06198 36 ft 15 kts 291°
2026-04-30 11:31 -7.90301 110.06092 36 ft 18 kts 291°
2026-04-30 11:32 -7.90259 110.05983 36 ft 20 kts 291°
2026-04-30 11:32 -7.90232 110.05920 36 ft 5 kts 319°
2026-04-30 11:32 -7.90196 110.05925 34 ft 4 kts 20°
2026-04-30 11:33 -7.90155 110.05940 36 ft 2 kts 20°
2026-04-30 11:33 -7.90144 110.05944 36 ft 1 kts 20°
2026-04-30 11:33 -7.90139 110.05945 36 ft 0 kts 20°